Location: Newark
(36.2667°N, 50.0000°E)
Time: 22:13:30
(UTC+00:00)

Hubble Space Telescope - Pass Details

Date: 30 September 2020
Orbit: 536 x 540 km, 28.5° (Epoch: 26 October)

Event Time Altitude Azimuth Distance (km) Brightness Sun altitude
Exits shadow 00:38:53 25° 158° (SSE) 1,102 2.4 -23.9°
Drops below altitude 10° 00:41:38 10° 118° (ESE) 1,777 4.0 -23.4°
Sets 00:44:09 0° 106° (ESE) 2,667 5.3 -22.9°
